QPF
0.00 0.00 0.00 0.00 0.00 0.00 0.00 0.01 0.01 0.01 0.01 0.01 0.01 0.01 0.01 0.01 0.02 0.02 0.02 0.03 0.03 0.03 0.03 0.03 0.03 0.04 0.03 0.02 0.02 0.02 0.01 0.01 0.01 0.01 0.01 0.01 0.01 0.01 0.02 0.02 0.02 0.02 0.02 0.02
0.00 0.00 0.00 0.00 0.01 0.01 0.00 0.00 0.01 0.02 0.01 0.01 0.01 0.01 0.01 0.01 0.01 0.01 0.01 0.02 0.02 0.03 0.04 0.05 0.05 0.05 0.06 0.05 0.04 0.03 0.02 0.02 0.01 0.01 0.01 0.01 0.01 0.02 0.02 0.02 0.03 0.03 0.01 0.02
0.00 0.00 0.01 0.01 0.01 0.02 0.01 0.01 0.01 0.02 0.02 0.01 0.01 0.00 0.00 0.01 0.01 0.01 0.01 0.01 0.01 0.03 0.05 0.07 0.06 0.06 0.05 0.04 0.03 0.03 0.03 0.03 0.02 0.01 0.01 0.01 0.01 0.02 0.03 0.04 0.03 0.02 0.02 0.03
0.00 0.01 0.01 0.02 0.01 0.01 0.01 0.02 0.02 0.01 0.01 0.01 0.01 0.01 0.01 0.01 0.01 0.01 0.01 0.02 0.03 0.04 0.05 0.06 0.08 0.07 0.05 0.03 0.02 0.02 0.03 0.04 0.03 0.03 0.02 0.01 0.02 0.03 0.04 0.04 0.03 0.03 0.03 0.03
0.02 0.01 0.01 0.01 0.01 0.01 0.01 0.02 0.01 0.01 0.01 0.00 0.00 0.01 0.02 0.02 0.02 0.03 0.03 0.04 0.04 0.05 0.05 0.05 0.05 0.07 0.07 0.05 0.03 0.03 0.04 0.04 0.03 0.03 0.03 0.03 0.03 0.03 0.03 0.03 0.03 0.02 0.02 0.02
0.02 0.02 0.02 0.01 0.00 0.00 0.02 0.03 0.01 0.01 0.01 0.01 0.01 0.02 0.02 0.02 0.04 0.03 0.03 0.03 0.04 0.05 0.04 0.04 0.03 0.04 0.07 0.08 0.07 0.05 0.05 0.05 0.04 0.04 0.04 0.03 0.02 0.02 0.02 0.02 0.02 0.01 0.02 0.02
0.01 0.01 0.01 0.01 0.01 0.01 0.03 0.02 0.01 0.01 0.01 0.01 0.02 0.03 0.03 0.02 0.02 0.03 0.04 0.04 0.05 0.06 0.05 0.04 0.04 0.03 0.05 0.07 0.07 0.05 0.05 0.05 0.05 0.04 0.02 0.01 0.02 0.02 0.02 0.01 0.01 0.02 0.02 0.01
0.01 0.01 0.01 0.01 0.01 0.01 0.01 0.01 0.01 0.01 0.01 0.01 0.02 0.01 0.01 0.01 0.02 0.02 0.03 0.04 0.06 0.08 0.08 0.06 0.05 0.03 0.03 0.05 0.06 0.05 0.05 0.06 0.04 0.03 0.01 0.01 0.01 0.01 0.01 0.01 0.01 0.01 0.01 0.01
0.01 0.01 0.01 0.00 0.01 0.01 0.00 0.01 0.01 0.01 0.01 0.01 0.01 0.01 0.01 0.01 0.02 0.01 0.02 0.04 0.05 0.07 0.08 0.08 0.07 0.05 0.03 0.03 0.04 0.04 0.04 0.04 0.03 0.03 0.01 0.01 0.01 0.01 0.01 0.01 0.01 0.00 0.01 0.01
0.00 0.00 0.00 0.00 0.00 0.00 0.00 0.00 0.01 0.01 0.01 0.01 0.01 0.01 0.01 0.01 0.01 0.02 0.02 0.04 0.06 0.07 0.08 0.08 0.08 0.07 0.04 0.03 0.03 0.03 0.04 0.04 0.04 0.03 0.01 0.01 0.01 0.01 0.01 0.01 0.01 0.01 0.01 0.01
0.00 0.00 0.00 0.00 0.00 0.00 0.00 0.00 0.00 0.00 0.01 0.01 0.01 0.01 0.01 0.02 0.02 0.02 0.04 0.06 0.06 0.06 0.06 0.07 0.06 0.06 0.04 0.02 0.02 0.02 0.03 0.03 0.03 0.01 0.01 0.01 0.00 0.00 0.00 0.00 0.00 0.01 0.00 0.00
0.01 0.01 0.01 0.01 0.00 0.00 0.00 0.00 0.00 0.01 0.01 0.01 0.01 0.01 0.01 0.02 0.02 0.03 0.03 0.05 0.07 0.07 0.06 0.06 0.06 0.05 0.03 0.02 0.02 0.01 0.02 0.01 0.01 0.01 0.01 0.00 0.00 0.00 0.00 0.00 0.00 0.00 0.00 0.00
0.01 0.01 0.01 0.00 0.00 0.00 0.00 0.00 0.01 0.01 0.01 0.01 0.01 0.01 0.01 0.02 0.03 0.04 0.05 0.05 0.06 0.06 0.07 0.07 0.06 0.04 0.03 0.02 0.02 0.02 0.01 0.01 0.00 0.00 0.00 0.00 0.00 0.00 0.00 0.00 0.00 0.00 0.00 0.00
0.01 0.01 0.01 0.00 0.00 0.00 0.00 0.01 0.01 0.01 0.01 0.01 0.02 0.02 0.01 0.03 0.04 0.05 0.05 0.04 0.05 0.05 0.06 0.06 0.05 0.03 0.02 0.02 0.01 0.01 0.01 0.00 0.00 0.00 0.00 0.00 0.00 0.00 0.00 0.00 0.00 0.00 0.00 0.00
0.01 0.01 0.01 0.00 0.00 0.00 0.00 0.00 0.00 0.01 0.01 0.01 0.02 0.02 0.01 0.04 0.06 0.05 0.04 0.04 0.04 0.04 0.04 0.05 0.04 0.02 0.01 0.01 0.00 0.00 0.00 0.00 0.00 0.00 0.00 0.01 0.01 0.01 0.01 0.00 0.00 0.00 0.00 0.00
0.00 0.00 0.00 0.00 0.00 0.00 0.00 0.00 0.00 0.00 0.00 0.01 0.02 0.03 0.03 0.05 0.06 0.06 0.04 0.03 0.03 0.03 0.02 0.02 0.02 0.01 0.00 0.00 0.00 0.00 0.00 0.00 0.00 0.00 0.00 0.00 0.01 0.01 0.01 0.00 0.01 0.00 0.00 0.00
0.00 0.00 0.00 0.00 0.00 0.00 0.00 0.00 0.00 0.00 0.00 0.01 0.02 0.03 0.04 0.06 0.05 0.03 0.03 0.03 0.03 0.02 0.01 0.01 0.01 0.00 0.00 0.00 0.00 0.00 0.00 0.00 0.00 0.00 0.00 0.00 0.00 0.00 0.00 0.00 0.00 0.00 0.00 0.00
0.00 0.00 0.00 0.00 0.00 0.00 0.00 0.00 0.00 0.00 0.00 0.00 0.01 0.03 0.04 0.04 0.04 0.03 0.02 0.02 0.02 0.01 0.01 0.01 0.00 0.00 0.00 0.00 0.00 0.00 0.00 0.00 0.00 0.00 0.00 0.00 0.00 0.00 0.00 0.00 0.00 0.00 0.00 0.00
0.00 0.00 0.00 0.00 0.00 0.00 0.00 0.00 0.00 0.00 0.00 0.00 0.01 0.03 0.03 0.03 0.02 0.02 0.01 0.01 0.01 0.01 0.01 0.00 0.00 0.00 0.00 0.00 0.00 0.00 0.00 0.00 0.00 0.00 0.00 0.00 0.00 0.00 0.00 0.00 0.00 0.00 0.00 0.00
0.00 0.00 0.00 0.00 0.00 0.00 0.00 0.00 0.00 0.00 0.00 0.00 0.01 0.02 0.02 0.02 0.02 0.01 0.01 0.01 0.00 0.00 0.00 0.00 0.00 0.00 0.00 0.00 0.00 0.00 0.00 0.00 0.00 0.00 0.00 0.00 0.00 0.00 0.00 0.00 0.00 0.00 0.00 0.00
0.00 0.00 0.00 0.00 0.00 0.00 0.00 0.00 0.00 0.00 0.00 0.00 0.00 0.01 0.01 0.01 0.00 0.00 0.00 0.00 0.00 0.00 0.00 0.00 0.00 0.00 0.00 0.00 0.00 0.00 0.00 0.00 0.00 0.00 0.00 0.00 0.00 0.00 0.00 0.00 0.00 0.00 0.00 0.00
0.00 0.00 0.00 0.00 0.00 0.00 0.00 0.00 0.00 0.00 0.00 0.00 0.00 0.00 0.00 0.00 0.00 0.00 0.00 0.00 0.00 0.00 0.00 0.00 0.00 0.00 0.00 0.00 0.00 0.00 0.00 0.00 0.00 0.00 0.00 0.00 0.00 0.00 0.00 0.00 0.00 0.00 0.00 0.00
0.00 0.00 0.00 0.00 0.00 0.00 0.00 0.00 0.00 0.00 0.00 0.00 0.00 0.00 0.00 0.00 0.00 0.00 0.00 0.00 0.00 0.00 0.00 0.00 0.00 0.00 0.00 0.00 0.00 0.00 0.00 0.00 0.00 0.00 0.00 0.00 0.00 0.00 0.00 0.00 0.00 0.00 0.00 0.00
0.00 0.00 0.00 0.00 0.00 0.00 0.00 0.00 0.00 0.00 0.00 0.00 0.00 0.00 0.00 0.00 0.00 0.00 0.00 0.00 0.00 0.00 0.00 0.00 0.00 0.00 0.00 0.00 0.00 0.00 0.00 0.00 0.00 0.00 0.00 0.00 0.00 0.00 0.00 0.00 0.00 0.00 0.00 0.00
0.00 0.00 0.00 0.00 0.00 0.00 0.00 0.00 0.00 0.00 0.00 0.00 0.00 0.00 0.00 0.00 0.00 0.00 0.00 0.00 0.00 0.00 0.00 0.00 0.00 0.00 0.00 0.00 0.00 0.00 0.00 0.00 0.00 0.00 0.00 0.00 0.00 0.00 0.00 0.00 0.00 0.00 0.00 0.00
0.00 0.00 0.00 0.00 0.00 0.00 0.00 0.00 0.00 0.00 0.00 0.00 0.00 0.00 0.00 0.00 0.00 0.00 0.00 0.00 0.00 0.00 0.00 0.00 0.00 0.00 0.00 0.00 0.00 0.00 0.00 0.00 0.00 0.00 0.00 0.00 0.00 0.00 0.00 0.00 0.00 0.00 0.00 0.00
0.00 0.00 0.00 0.00 0.00 0.00 0.00 0.00 0.00 0.00 0.00 0.00 0.00 0.00 0.00 0.00 0.00 0.00 0.00 0.00 0.00 0.00 0.00 0.00 0.00 0.00 0.00 0.00 0.00 0.01 0.01 0.01 0.01 0.01 0.01 0.00 0.00 0.00 0.00 0.00 0.00 0.00 0.00 0.00
MSLP
1014.99 1015.12 1015.25 1015.39 1015.53 1015.65 1015.76 1015.84 1015.89 1015.88 1015.84 1015.76 1015.64 1015.51 1015.37 1015.23 1015.12 1015.05 1015.02 1015.05 1015.16 1015.35 1015.61 1015.96 1016.39 1016.88 1017.41 1017.96 1018.50 1019.00 1019.44 1019.81 1020.08 1020.27 1020.38 1020.42 1020.41 1020.39 1020.35 1020.31 1020.28 1020.27 1020.25 1020.23
1015.53 1015.70 1015.85 1015.98 1016.08 1016.16 1016.21 1016.23 1016.23 1016.22 1016.20 1016.16 1016.12 1016.08 1016.03 1015.99 1015.96 1015.95 1015.96 1016.01 1016.10 1016.27 1016.51 1016.83 1017.23 1017.70 1018.22 1018.76 1019.30 1019.79 1020.23 1020.57 1020.82 1020.97 1021.03 1021.03 1020.98 1020.92 1020.85 1020.80 1020.78 1020.76 1020.76 1020.75
1015.97 1016.17 1016.33 1016.45 1016.52 1016.56 1016.57 1016.56 1016.56 1016.56 1016.58 1016.62 1016.67 1016.75 1016.82 1016.90 1016.97 1017.04 1017.10 1017.18 1017.28 1017.43 1017.64 1017.92 1018.27 1018.70 1019.17 1019.67 1020.16 1020.61 1020.99 1021.29 1021.49 1021.59 1021.60 1021.56 1021.48 1021.39 1021.31 1021.26 1021.23 1021.23 1021.24 1021.24
1016.28 1016.50 1016.67 1016.77 1016.82 1016.84 1016.83 1016.82 1016.83 1016.88 1016.98 1017.11 1017.29 1017.50 1017.71 1017.91 1018.09 1018.25 1018.37 1018.48 1018.59 1018.72 1018.89 1019.12 1019.41 1019.76 1020.15 1020.58 1020.99 1021.36 1021.68 1021.91 1022.04 1022.09 1022.07 1021.99 1021.88 1021.78 1021.69 1021.64 1021.62 1021.63 1021.65 1021.67
1016.49 1016.72 1016.87 1016.96 1016.99 1016.99 1016.99 1017.00 1017.06 1017.18 1017.36 1017.62 1017.93 1018.27 1018.61 1018.94 1019.22 1019.46 1019.64 1019.78 1019.89 1019.99 1020.11 1020.28 1020.49 1020.75 1021.05 1021.38 1021.70 1021.99 1022.22 1022.38 1022.46 1022.47 1022.40 1022.30 1022.19 1022.08 1021.99 1021.95 1021.94 1021.96 1021.99 1022.01
1016.63 1016.84 1016.98 1017.05 1017.07 1017.07 1017.07 1017.12 1017.24 1017.44 1017.73 1018.10 1018.53 1018.99 1019.45 1019.88 1020.25 1020.54 1020.76 1020.91 1021.00 1021.07 1021.15 1021.24 1021.37 1021.55 1021.77 1022.00 1022.24 1022.45 1022.62 1022.72 1022.76 1022.73 1022.65 1022.54 1022.42 1022.32 1022.25 1022.22 1022.22 1022.25 1022.29 1022.31
1016.70 1016.89 1017.01 1017.07 1017.08 1017.09 1017.13 1017.23 1017.41 1017.70 1018.08 1018.55 1019.08 1019.63 1020.16 1020.65 1021.06 1021.38 1021.60 1021.74 1021.81 1021.84 1021.87 1021.91 1021.98 1022.09 1022.24 1022.41 1022.59 1022.75 1022.87 1022.94 1022.96 1022.92 1022.84 1022.74 1022.64 1022.56 1022.51 1022.49 1022.50 1022.54 1022.58 1022.61
1016.73 1016.91 1017.02 1017.06 1017.09 1017.12 1017.20 1017.35 1017.60 1017.96 1018.41 1018.95 1019.54 1020.14 1020.70 1021.21 1021.62 1021.92 1022.12 1022.23 1022.26 1022.26 1022.24 1022.24 1022.28 1022.35 1022.47 1022.61 1022.77 1022.91 1023.02 1023.09 1023.11 1023.09 1023.03 1022.96 1022.88 1022.82 1022.79 1022.79 1022.82 1022.86 1022.90 1022.93
1016.73 1016.90 1017.00 1017.06 1017.11 1017.18 1017.31 1017.52 1017.83 1018.24 1018.75 1019.32 1019.93 1020.52 1021.07 1021.54 1021.91 1022.17 1022.32 1022.38 1022.38 1022.34 1022.31 1022.30 1022.33 1022.40 1022.52 1022.68 1022.84 1023.00 1023.13 1023.22 1023.26 1023.27 1023.24 1023.20 1023.15 1023.12 1023.11 1023.12 1023.16 1023.21 1023.26 1023.28
1016.68 1016.86 1016.98 1017.07 1017.17 1017.29 1017.48 1017.75 1018.11 1018.57 1019.09 1019.67 1020.25 1020.81 1021.30 1021.70 1022.00 1022.18 1022.27 1022.29 1022.25 1022.20 1022.17 1022.17 1022.23 1022.33 1022.49 1022.68 1022.88 1023.07 1023.23 1023.35 1023.43 1023.46 1023.47 1023.45 1023.43 1023.43 1023.43 1023.47 1023.51 1023.57 1023.62 1023.64
1016.58 1016.78 1016.94 1017.09 1017.24 1017.44 1017.69 1018.03 1018.43 1018.91 1019.44 1019.99 1020.53 1021.02 1021.43 1021.74 1021.95 1022.06 1022.09 1022.06 1022.01 1021.96 1021.95 1021.99 1022.09 1022.25 1022.46 1022.70 1022.94 1023.16 1023.36 1023.50 1023.60 1023.66 1023.68 1023.68 1023.68 1023.68 1023.71 1023.75 1023.81 1023.87 1023.92 1023.94
1016.40 1016.64 1016.87 1017.08 1017.32 1017.60 1017.92 1018.32 1018.76 1019.26 1019.77 1020.28 1020.76 1021.17 1021.49 1021.72 1021.84 1021.89 1021.88 1021.83 1021.78 1021.76 1021.79 1021.88 1022.04 1022.25 1022.51 1022.79 1023.06 1023.30 1023.51 1023.65 1023.75 1023.80 1023.82 1023.82 1023.82 1023.83 1023.86 1023.91 1023.98 1024.05 1024.10 1024.13
1016.13 1016.44 1016.73 1017.04 1017.36 1017.72 1018.12 1018.57 1019.05 1019.55 1020.05 1020.52 1020.93 1021.26 1021.51 1021.67 1021.75 1021.76 1021.72 1021.68 1021.66 1021.68 1021.76 1021.91 1022.12 1022.38 1022.67 1022.96 1023.23 1023.47 1023.65 1023.76 1023.83 1023.85 1023.84 1023.81 1023.80 1023.81 1023.84 1023.90 1023.97 1024.05 1024.12 1024.15
1015.80 1016.17 1016.54 1016.93 1017.34 1017.78 1018.25 1018.74 1019.25 1019.75 1020.23 1020.66 1021.02 1021.31 1021.51 1021.63 1021.68 1021.68 1021.67 1021.66 1021.68 1021.76 1021.89 1022.09 1022.34 1022.62 1022.91 1023.19 1023.43 1023.62 1023.74 1023.80 1023.80 1023.76 1023.70 1023.64 1023.61 1023.60 1023.63 1023.69 1023.78 1023.87 1023.95 1023.99
1015.42 1015.85 1016.30 1016.77 1017.26 1017.76 1018.29 1018.81 1019.33 1019.83 1020.29 1020.70 1021.03 1021.29 1021.47 1021.58 1021.64 1021.68 1021.70 1021.75 1021.83 1021.96 1022.15 1022.38 1022.65 1022.93 1023.19 1023.43 1023.60 1023.71 1023.75 1023.73 1023.65 1023.54 1023.42 1023.32 1023.25 1023.23 1023.25 1023.32 1023.42 1023.53 1023.63 1023.68
1015.01 1015.50 1016.02 1016.56 1017.11 1017.67 1018.23 1018.78 1019.30 1019.79 1020.24 1020.63 1020.95 1021.20 1021.39 1021.52 1021.63 1021.71 1021.79 1021.90 1022.05 1022.23 1022.46 1022.71 1022.97 1023.22 1023.44 1023.60 1023.70 1023.72 1023.66 1023.54 1023.38 1023.20 1023.03 1022.88 1022.78 1022.75 1022.77 1022.84 1022.95 1023.08 1023.19 1023.26
1014.62 1015.17 1015.75 1016.34 1016.93 1017.52 1018.10 1018.66 1019.18 1019.66 1020.10 1020.47 1020.79 1021.06 1021.27 1021.45 1021.60 1021.75 1021.90 1022.08 1022.28 1022.50 1022.75 1023.00 1023.24 1023.45 1023.60 1023.69 1023.69 1023.62 1023.47 1023.27 1023.04 1022.80 1022.58 1022.40 1022.28 1022.23 1022.25 1022.33 1022.44 1022.58 1022.70 1022.78
1014.29 1014.88 1015.50 1016.13 1016.75 1017.36 1017.94 1018.49 1019.00 1019.47 1019.90 1020.27 1020.60 1020.88 1021.13 1021.35 1021.56 1021.77 1021.99 1022.21 1022.46 1022.71 1022.96 1023.20 1023.40 1023.55 1023.64 1023.65 1023.58 1023.43 1023.21 1022.95 1022.67 1022.39 1022.15 1021.95 1021.82 1021.77 1021.78 1021.85 1021.96 1022.09 1022.21 1022.29
1014.04 1014.67 1015.32 1015.97 1016.60 1017.21 1017.79 1018.32 1018.82 1019.27 1019.69 1020.06 1020.40 1020.70 1020.98 1021.25 1021.51 1021.76 1022.02 1022.28 1022.55 1022.81 1023.05 1023.26 1023.42 1023.52 1023.55 1023.50 1023.37 1023.17 1022.92 1022.63 1022.33 1022.04 1021.79 1021.59 1021.46 1021.40 1021.40 1021.46 1021.55 1021.66 1021.75 1021.82
1013.88 1014.53 1015.20 1015.86 1016.49 1017.09 1017.65 1018.17 1018.64 1019.08 1019.49 1019.86 1020.21 1020.53 1020.84 1021.13 1021.43 1021.71 1021.99 1022.27 1022.54 1022.79 1023.01 1023.19 1023.31 1023.37 1023.35 1023.27 1023.11 1022.89 1022.63 1022.34 1022.04 1021.77 1021.52 1021.33 1021.20 1021.14 1021.12 1021.15 1021.21 1021.28 1021.33 1021.36
1013.79 1014.46 1015.13 1015.78 1016.40 1016.98 1017.52 1018.02 1018.48 1018.91 1019.30 1019.67 1020.03 1020.36 1020.69 1021.00 1021.31 1021.61 1021.90 1022.17 1022.43 1022.66 1022.85 1023.00 1023.09 1023.12 1023.08 1022.98 1022.82 1022.60 1022.36 1022.09 1021.82 1021.57 1021.35 1021.18 1021.05 1020.96 1020.92 1020.91 1020.92 1020.94 1020.94 1020.92
1013.77 1014.43 1015.08 1015.71 1016.31 1016.86 1017.38 1017.85 1018.30 1018.71 1019.10 1019.47 1019.83 1020.17 1020.50 1020.82 1021.13 1021.43 1021.71 1021.98 1022.21 1022.42 1022.59 1022.71 1022.78 1022.79 1022.75 1022.65 1022.51 1022.32 1022.11 1021.88 1021.65 1021.43 1021.23 1021.07 1020.93 1020.83 1020.76 1020.70 1020.66 1020.61 1020.55 1020.46
1013.76 1014.40 1015.02 1015.61 1016.17 1016.69 1017.18 1017.63 1018.06 1018.46 1018.84 1019.21 1019.57 1019.91 1020.24 1020.56 1020.87 1021.16 1021.42 1021.67 1021.89 1022.07 1022.22 1022.33 1022.39 1022.40 1022.37 1022.30 1022.18 1022.03 1021.85 1021.66 1021.47 1021.28 1021.10 1020.94 1020.80 1020.68 1020.57 1020.47 1020.36 1020.25 1020.13 1020.00
1013.75 1014.34 1014.91 1015.45 1015.96 1016.44 1016.89 1017.31 1017.72 1018.11 1018.48 1018.84 1019.19 1019.53 1019.86 1020.17 1020.47 1020.75 1021.00 1021.23 1021.43 1021.61 1021.75 1021.85 1021.92 1021.95 1021.94 1021.89 1021.80 1021.69 1021.55 1021.39 1021.23 1021.06 1020.89 1020.73 1020.58 1020.43 1020.29 1020.15 1020.01 1019.85 1019.69 1019.51
1013.69 1014.22 1014.73 1015.21 1015.66 1016.09 1016.50 1016.89 1017.26 1017.63 1017.99 1018.34 1018.68 1019.02 1019.33 1019.64 1019.92 1020.19 1020.43 1020.65 1020.85 1021.02 1021.16 1021.28 1021.36 1021.40 1021.42 1021.40 1021.34 1021.25 1021.14 1021.01 1020.86 1020.71 1020.54 1020.38 1020.22 1020.06 1019.90 1019.73 1019.57 1019.39 1019.21 1019.01
1013.59 1014.05 1014.48 1014.89 1015.28 1015.65 1016.01 1016.36 1016.71 1017.05 1017.38 1017.72 1018.04 1018.36 1018.66 1018.95 1019.22 1019.48 1019.71 1019.93 1020.13 1020.31 1020.46 1020.59 1020.68 1020.76 1020.79 1020.79 1020.76 1020.69 1020.60 1020.48 1020.34 1020.19 1020.02 1019.86 1019.69 1019.52 1019.36 1019.20 1019.03 1018.86 1018.68 1018.50
1013.44 1013.82 1014.18 1014.52 1014.84 1015.16 1015.47 1015.77 1016.08 1016.39 1016.70 1017.00 1017.30 1017.59 1017.88 1018.14 1018.40 1018.64 1018.87 1019.08 1019.28 1019.47 1019.63 1019.78 1019.90 1019.99 1020.04 1020.06 1020.05 1019.99 1019.91 1019.79 1019.65 1019.50 1019.33 1019.16 1019.00 1018.84 1018.69 1018.54 1018.40 1018.26 1018.12 1017.97
Thickness
5700 5703 5703 5699 5699 5700 5698 5699 5696 5695 5692 5688 5685 5680 5675 5669 5662 5655 5647 5640 5634 5628 5622 5616 5610 5604 5599 5594 5589 5585 5581 5576 5572 5568 5565 5562 5560 5558 5557 5556 5555 5555 5555 5554
5692 5697 5698 5694 5696 5696 5696 5697 5695 5692 5685 5687 5682 5676 5668 5663 5656 5648 5641 5635 5628 5622 5616 5610 5605 5599 5593 5588 5583 5579 5575 5571 5566 5562 5560 5557 5555 5553 5552 5551 5550 5550 5549 5548
5687 5694 5692 5683 5691 5693 5693 5695 5693 5687 5683 5679 5672 5666 5661 5657 5651 5644 5636 5629 5623 5616 5610 5604 5599 5593 5587 5582 5578 5573 5569 5565 5561 5559 5556 5553 5552 5550 5548 5547 5546 5545 5544 5544
5688 5683 5671 5685 5696 5695 5690 5687 5688 5684 5679 5673 5666 5660 5656 5652 5646 5638 5631 5624 5617 5610 5604 5598 5593 5587 5581 5577 5573 5569 5565 5561 5558 5556 5553 5550 5548 5546 5545 5544 5542 5541 5541 5540
5684 5679 5679 5683 5689 5690 5685 5679 5682 5677 5670 5666 5662 5654 5647 5644 5640 5634 5627 5620 5612 5605 5599 5593 5587 5582 5577 5573 5569 5566 5562 5559 5556 5554 5551 5548 5545 5543 5542 5541 5539 5538 5537 5536
5681 5673 5670 5680 5689 5691 5684 5672 5676 5673 5665 5660 5656 5650 5643 5637 5633 5627 5621 5614 5606 5600 5594 5587 5582 5578 5574 5569 5566 5562 5559 5556 5553 5550 5548 5545 5543 5541 5540 5538 5538 5537 5535 5534
5680 5675 5678 5683 5687 5685 5669 5667 5672 5669 5663 5657 5653 5649 5641 5633 5627 5621 5614 5607 5601 5595 5589 5584 5578 5574 5570 5566 5562 5558 5556 5553 5550 5548 5545 5543 5541 5539 5538 5538 5537 5536 5535 5533
5680 5674 5670 5680 5682 5675 5670 5672 5669 5665 5660 5653 5646 5639 5633 5627 5620 5614 5608 5602 5597 5591 5585 5580 5575 5571 5567 5563 5559 5556 5553 5551 5548 5546 5545 5543 5540 5539 5538 5537 5537 5536 5536 5535
5680 5675 5674 5678 5676 5673 5672 5668 5664 5660 5655 5648 5639 5633 5627 5620 5614 5608 5603 5597 5593 5588 5582 5577 5573 5569 5565 5561 5558 5555 5553 5550 5548 5546 5544 5543 5541 5540 5540 5539 5540 5541 5540 5539
5676 5674 5673 5673 5672 5670 5669 5665 5661 5657 5651 5644 5637 5629 5622 5615 5609 5603 5598 5594 5589 5585 5580 5575 5570 5567 5563 5560 5557 5555 5552 5550 5549 5547 5546 5544 5543 5543 5542 5541 5541 5541 5541 5541
5672 5671 5670 5668 5668 5665 5662 5659 5655 5651 5646 5640 5633 5625 5618 5611 5605 5601 5596 5591 5587 5583 5579 5574 5570 5566 5563 5559 5557 5555 5553 5552 5551 5550 5549 5546 5546 5543 5542 5540 5540 5539 5541 5541
5675 5674 5672 5665 5665 5663 5657 5653 5650 5645 5639 5635 5630 5623 5616 5610 5604 5599 5595 5590 5586 5583 5579 5575 5571 5567 5563 5561 5558 5556 5555 5554 5555 5554 5552 5552 5550 5547 5540 5540 5537 5536 5535 5535
5678 5676 5673 5666 5663 5660 5656 5651 5647 5642 5636 5631 5626 5621 5615 5609 5603 5598 5594 5590 5587 5583 5580 5576 5572 5568 5565 5563 5560 5558 5557 5557 5558 5558 5557 5556 5554 5553 5551 5545 5541 5540 5539 5539
5675 5671 5664 5662 5659 5656 5653 5648 5644 5639 5634 5629 5623 5618 5613 5608 5603 5599 5595 5592 5588 5585 5581 5577 5574 5570 5568 5565 5562 5561 5561 5558 5559 5559 5560 5560 5559 5558 5558 5557 5556 5555 5549 5546
5672 5671 5666 5663 5658 5653 5649 5645 5639 5634 5630 5625 5621 5616 5612 5608 5603 5599 5596 5593 5589 5586 5583 5580 5576 5573 5570 5568 5566 5565 5565 5564 5563 5564 5564 5564 5563 5564 5564 5562 5562 5563 5563 5558
5672 5669 5664 5660 5655 5651 5647 5643 5639 5634 5630 5625 5620 5616 5612 5609 5605 5601 5597 5593 5590 5588 5585 5581 5578 5576 5574 5572 5569 5568 5567 5563 5563 5566 5568 5568 5568 5569 5568 5568 5568 5568 5569 5569
5670 5665 5662 5658 5654 5651 5648 5645 5641 5636 5631 5626 5621 5617 5613 5609 5605 5601 5598 5595 5592 5590 5587 5584 5581 5579 5577 5575 5574 5574 5574 5571 5564 5568 5572 5573 5573 5573 5573 5573 5573 5574 5574 5573
5676 5672 5667 5663 5658 5653 5649 5646 5642 5637 5632 5628 5623 5618 5614 5610 5607 5603 5600 5597 5594 5591 5589 5586 5584 5582 5581 5579 5578 5579 5579 5579 5577 5578 5578 5577 5578 5578 5578 5578 5579 5579 5580 5580
5675 5671 5667 5663 5659 5655 5651 5647 5643 5639 5635 5631 5625 5620 5617 5614 5610 5607 5603 5600 5596 5593 5592 5590 5585 5584 5583 5582 5580 5580 5582 5583 5583 5583 5582 5579 5580 5582 5583 5583 5584 5584 5585 5585
5674 5671 5667 5663 5660 5656 5651 5647 5643 5639 5635 5632 5627 5622 5618 5616 5613 5610 5606 5603 5603 5601 5598 5594 5590 5589 5588 5586 5582 5587 5588 5588 5588 5587 5587 5587 5588 5588 5588 5588 5588 5589 5589 5589
5673 5670 5666 5663 5658 5655 5652 5648 5644 5639 5636 5632 5628 5624 5621 5618 5616 5613 5609 5608 5606 5604 5600 5595 5595 5594 5593 5591 5585 5592 5594 5593 5593 5593 5593 5593 5593 5592 5593 5593 5593 5593 5593 5593
5671 5668 5664 5661 5657 5653 5650 5648 5645 5641 5637 5634 5631 5628 5624 5620 5618 5615 5614 5612 5611 5605 5603 5603 5601 5598 5597 5592 5596 5597 5598 5598 5598 5598 5598 5597 5597 5597 5597 5597 5597 5597 5597 5598
5669 5666 5662 5659 5655 5652 5649 5647 5645 5642 5638 5635 5632 5630 5627 5625 5624 5620 5617 5616 5614 5607 5607 5608 5604 5599 5595 5596 5600 5601 5602 5601 5602 5602 5602 5601 5601 5601 5601 5601 5601 5601 5601 5601
5666 5663 5660 5658 5655 5651 5647 5646 5644 5642 5640 5638 5636 5633 5630 5628 5626 5625 5624 5618 5614 5609 5610 5609 5603 5599 5595 5600 5603 5604 5605 5605 5605 5605 5606 5606 5605 5605 5605 5604 5604 5604 5605 5604
5663 5661 5658 5655 5652 5651 5647 5645 5643 5641 5640 5639 5637 5635 5633 5632 5630 5628 5626 5622 5616 5611 5613 5611 5605 5601 5601 5605 5607 5608 5608 5609 5609 5609 5608 5607 5608 5608 5608 5608 5608 5607 5607 5607
5660 5659 5656 5654 5653 5651 5651 5648 5646 5644 5643 5640 5639 5637 5636 5634 5631 5630 5626 5624 5621 5615 5617 5618 5614 5607 5609 5611 5612 5612 5611 5611 5610 5609 5609 5609 5609 5609 5610 5610 5609 5609 5609 5609
5658 5656 5654 5654 5653 5652 5652 5650 5648 5646 5644 5642 5640 5639 5637 5635 5633 5631 5629 5627 5626 5622 5621 5622 5621 5618 5617 5616 5616 5615 5614 5614 5613 5612 5612 5611 5611 5611 5611 5610 5610 5610 5610 5610